SCP
0 0 0 0 0 0 0 0 0 0 0 0 0 0 0 0 0 0 0 0 0 -0 -0 -0 -0 -0 -0 -0 0 0 0 0 0 0 0 0 0 0 0 0 0 0 0 0
0 0 0 0 0 0 0 0 0 0 0 0 0 0 0 0 0 0 0 0 0 0 -0 -0 -0 -0 -0 -0 0 0 0 0 0 0 0 0 0 0 0 0 0 0 0 0
0 0 0 0 0 0 0 0 0 0 0 0 0 0 0 0 0 0 0 0 0 0 -0 -0 0 -0 -0 -0 0 0 0 0 0 0 0 0 0 0 0 0 0 0 0 0
0 0 0 0 0 0 0 0 0 0 0 0 0 0 0 0 0 0 0 0 0 0 0 0 0 -0 -0 -0 0 0 0 0 0 0 0 0 0 0 0 0 0 0 0 0
0 0 0 0 0 0 0 0 0 0 0 0 0 0 0 0 0 0 0 0 0 0 0 0 0 -0 -0 -0 0 0 0 0 0 0 0 0 0 0 0 0 0 0 0 0
0 0 0 0 0 0 0 0 0 0 0 0 0 0 -0 0 0 0 0 0 0 0 0 0 0 -0 -0 -0 0 0 0 0 0 0 0 0 0 0 0 0 0 0 0 0
0 0 0 0 0 0 0 0 0 0 0 0 0 0 0 0 0 0 0 0 0 0 0 0 0 0 0 0 0 0 0 0 0 0 0 0 0 0 0 0 0 0 0 0
0 0 0 0 0 0 0 0 0 0 0 0 0 0 0 0 0 0 0 0 0 0 0 0 0 0 0 0 0 0 0 0 0 0 0 0 0 0 0 0 0 0 0 0
0 0 0 0 0 0 0 0 0 0 0 0 0 0 0 0 0 0 0 0 0 0 0 0 0 0 0 0 0 0 0 0 0 0 0 0 0 0 0 0 0 0 0 0
0 0 0 0 0 0 0 0 0 0 0 0 0 0 0 0 0 0 0 0 0 0 0 0 0 0 0 0 0 0 0 0 0 0 0 0 0 0 0 0 0 0 0 0
0 0 0 0 0 0 0 0 0 0 0 0 0 0 0 0 0 0 0 0 0 0 0 0 0 0 0 0 0 0 0 0 0 0 0 0 0 0 0 0 0 0 0 0
0 0 0 0 0 0 0 0 0 0 0 0 0 0 0 0 0 0 0 0 0 0 0 0 0 0 0 0 0 0 0 0 0 0 0 0 0 0 0 0 0 0 0 0
0 0 0 0 0 0 0 0 0 0 0 0 0 0 0 0 0 0 0 0 0 0 0 0 0 0 0 0 0 0 0 0 0 0 0 0 0 0 0 0 0 0 0 0
0 0 0 0 0 0 0 0 0 0 0 0 0 0 0 0 0 0 0 0 0 0 0 0 0 0 0 0 0 0 0 0 0 0 0 0 0 0 0 0 0 0 0 0
0 0 0 0 0 0 0 0 0 0 0 0 0 0 0 0 0 0 0 0 0 0 0 0 0 0 0 0 0 0 0 0 0 0 0 0 0 0 0 0 0 0 0 0
0 0 0 0 0 0 0 0 0 0 0 0 0 0 0 0 0 0 0 0 0 0 0 0 0 0 0 0 0 0 0 0 0 0 0 0 0 0 0 0 0 0 0 0
0 0 0 0 0 0 0 0 0 0 0 0 0 0 0 0 0 0 0 0 0 0 0 0 0 0 0 0 0 0 0 0 0 0 0 0 0 0 0 0 0 0 0 0
0 0 0 0 0 0 0 0 0 0 0 0 0 0 0 0 0 0 0 0 0 0 0 0 0 0 0 0 0 0 0 0 0 0 0 0 0 0 0 0 0 0 0 0
0 0 0 0 0 0 0 0 0 0 0 0 0 0 0 0 0 0 0 0 0 0 0 0 0 0 0 0 0 0 0 0 0 0 0 0 0 0 0 0 0 0 0 0
0 -0 0 0 0 0 0 0 0 0 0 0 0 0 0 0 0 0 0 0 0 0 0 0 0 0 0 0 0 0 0 0 0 0 0 0 0 0 0 0 0 0 0 0
0 0 -0 0 0 0 0 0 0 0 0 0 0 0 0 0 0 0 0 0 0 0 0 0 0 0 0 0 0 0 0 0 0 0 0 0 0 0 0 0 0 0 0 0
0 0 -0 0 0 0 0 0 0 0 0 0 0 0 0 0 0 0 0 0 0 0 0 0 0 0 0 0 0 0 0 0 0 0 0 0 0 0 0 0 0 0 0 0
0 0 0 0 0 0 0 0 0 0 0 0 0 0 0 0 0 0 0 0 0 0 0 0 0 0 0 0 0 0 0 0 0 0 0 0 0 0 0 0 0 0 0 0
0 0 0 0 0 0 0 0 0 0 0 0 0 0 0 0 0 0 0 0 0 0 0 0 0 0 0 0 0 0 0 0 0 0 0 0 0 0 0 0 0 0 0 0
0 0 0 0 0 0 0 0 0 0 0 0 0 0 0 0 0 0 0 0 0 0 0 0 0 0 0 0 0 0 0 0 0 0 0 0 0 0 0 0 0 0 0 0
0 0 0 0 0 0 0 0 0 0 0 0 0 0 0 0 0 0 0 0 0 0 0 0 0 0 0 0 0 0 0 0 0 0 0 0 0 0 0 0 0 0 0 0
0 0 0 0 0 0 0 0 0 0 0 0 0 0 0 0 0 0 0 0 0 0 0 0 0 0 0 0 0 0 0 0 0 0 0 0 0 0 0 0 0 0 0 0
Wind_Speed
7 7 5 6 7 7 9 9 7 6 6 5 2 2 3 3 3 4 5 5 5 5 5 5 5 4 4 4 3 3 3 2 2 1 1 2 2 2 2 2 3 3 3 3
6 6 6 9 10 10 11 11 12 11 12 5 1 1 1 2 3 3 4 4 5 5 5 5 4 4 4 3 3 3 3 2 2 1 1 2 2 2 2 2 3 3 3 4
4 3 4 9 9 12 8 8 8 10 8 2 2 1 1 2 3 3 3 3 4 4 4 4 4 4 4 4 3 3 2 2 2 2 2 2 2 2 3 3 3 3 4 4
3 3 8 6 0 3 6 7 8 7 5 2 1 0 1 1 2 2 2 3 3 3 3 3 3 3 3 3 3 3 3 2 2 2 2 2 2 3 3 3 3 4 4 4
2 5 9 4 2 2 3 5 4 5 4 2 1 1 2 1 1 2 2 2 2 3 3 3 3 3 3 3 3 3 3 3 3 2 2 2 3 4 3 3 3 4 4 4
4 5 7 2 2 2 1 4 1 1 2 1 2 0 2 0 1 1 2 2 2 2 3 3 3 3 3 3 3 3 3 3 2 2 3 3 4 4 3 3 4 4 4 5
7 6 8 1 3 3 2 3 1 1 1 1 2 2 1 2 2 2 2 2 2 2 2 2 3 3 3 3 3 3 3 2 2 3 3 4 3 3 3 3 3 4 5 5
5 7 9 3 4 4 2 0 1 1 1 1 1 0 1 1 1 2 2 2 2 2 2 2 3 4 3 4 3 3 2 3 3 3 3 3 3 3 3 3 3 4 4 5
7 7 2 4 3 2 1 1 1 1 2 1 2 2 2 2 2 2 2 3 2 3 3 2 3 4 4 4 3 3 3 3 3 3 3 3 3 4 3 3 3 4 4 5
5 5 3 3 4 3 3 3 2 2 2 2 3 3 3 2 2 2 2 3 3 3 3 4 3 4 4 3 3 3 3 3 3 3 3 3 3 3 3 3 4 4 4 5
7 7 6 5 4 4 3 3 3 3 3 4 4 4 4 3 3 3 2 2 3 3 4 4 4 4 3 3 3 3 3 3 3 3 3 3 3 3 4 5 5 5 5 5
8 5 5 5 2 2 3 4 4 4 5 4 4 5 4 4 4 3 3 3 3 4 4 4 3 4 3 3 4 4 3 3 3 3 3 3 3 4 7 8 10 11 11 9
8 6 6 6 4 3 4 4 4 4 5 5 4 4 4 4 3 3 3 4 4 4 4 3 3 4 4 4 4 4 4 4 3 3 3 3 3 4 5 7 9 11 12 13
5 5 6 6 5 4 4 4 4 4 4 3 3 3 3 3 3 3 4 4 3 3 3 3 4 4 4 4 4 4 4 5 4 3 3 4 4 4 4 5 6 6 8 12
6 5 6 5 4 4 4 3 4 4 3 3 2 3 3 3 4 4 3 2 2 3 3 4 4 4 3 3 4 4 4 3 3 3 3 3 4 4 4 5 6 6 6 7
5 5 5 5 5 5 4 4 4 5 4 4 3 3 3 3 3 3 2 3 3 4 4 4 5 4 3 3 3 3 3 6 5 3 3 3 4 4 5 5 6 6 6 6
4 4 4 5 6 5 4 4 4 4 3 3 3 3 2 2 2 3 3 3 3 4 4 4 4 3 3 4 4 3 3 4 6 4 4 4 4 5 5 5 6 6 6 7
3 4 4 4 4 4 4 3 3 2 3 3 2 2 2 3 3 3 3 2 2 3 4 4 4 4 4 4 3 3 3 3 3 4 4 4 5 5 5 6 6 7 7 7
3 3 3 2 2 2 2 2 2 2 1 1 1 2 2 2 2 2 2 1 3 4 5 3 4 3 3 4 4 3 3 4 4 4 4 7 7 5 5 6 6 7 6 6
2 2 2 2 2 1 1 2 1 1 1 1 1 1 2 3 2 2 2 3 4 4 3 3 3 3 3 4 5 3 4 4 5 5 4 5 5 6 6 6 6 7 6 6
3 2 2 2 2 2 1 1 1 1 2 1 1 2 3 3 3 2 2 4 5 3 3 4 3 3 3 4 5 3 4 4 5 5 5 5 6 6 6 6 7 7 6 6
2 2 2 2 2 2 2 1 1 1 2 2 2 2 3 4 4 4 4 5 5 5 3 3 3 4 5 5 3 3 4 5 5 5 5 5 6 6 6 6 6 6 6 6
2 2 2 2 2 3 3 2 2 2 3 3 4 4 4 4 3 3 5 4 3 5 4 3 5 8 9 5 3 4 5 6 6 6 5 5 5 6 6 7 6 6 6 6
3 2 2 2 2 2 3 4 3 3 3 4 4 4 4 4 4 4 4 6 6 7 4 6 10 11 10 4 4 4 5 5 5 5 5 5 5 5 6 6 6 6 6 7
3 3 3 3 3 3 4 4 3 4 4 3 4 4 4 3 4 4 4 4 7 7 5 7 11 11 6 4 4 5 5 5 5 5 5 5 5 5 6 6 6 6 6 6
3 3 3 4 3 3 3 3 3 3 3 4 4 3 3 3 4 4 4 5 6 8 6 4 5 6 4 4 5 5 5 5 6 5 5 5 6 6 6 6 7 6 6 5
4 3 3 3 3 3 3 3 3 4 4 4 5 4 4 4 3 4 4 4 4 4 4 4 4 4 4 4 5 5 5 5 5 5 5 5 5 5 5 6 5 5 5 5
Wind_Direction
271 281 275 255 244 222 218 223 235 254 266 269 248 205 193 182 176 174 176 177 177 176 169 162 160 162 161 161 159 162 169 182 198 198 197 191 201 211 217 226 236 237 243 248
273 253 257 263 248 236 236 237 248 267 276 269 277 156 181 183 181 188 184 182 179 171 164 164 164 167 165 167 164 162 176 191 189 204 205 202 214 224 231 239 244 246 250 251
271 270 294 264 234 218 221 221 224 242 253 288 298 257 223 206 196 195 182 173 174 173 170 167 168 167 172 171 159 163 182 187 189 206 216 215 217 230 238 241 244 250 251 250
276 306 253 243 124 192 222 240 228 246 273 294 312 358 310 225 200 203 190 173 169 166 161 157 150 148 151 151 158 171 184 195 199 204 218 224 225 235 241 240 242 247 251 250
238 261 273 254 207 176 207 264 230 237 257 280 29 17 310 254 193 183 178 168 167 161 151 149 150 152 149 159 167 177 192 204 208 207 217 229 238 245 245 244 252 252 254 254
229 242 255 251 108 73 87 273 300 228 257 205 106 241 256 129 90 83 101 115 124 122 122 139 157 148 156 177 184 198 202 206 207 208 220 233 240 246 247 242 247 254 260 255
231 244 263 232 141 125 181 249 20 42 38 125 189 215 206 97 89 94 101 104 114 123 142 169 162 154 176 192 207 204 192 204 217 219 226 235 242 245 248 247 252 257 264 266
203 228 252 163 149 190 219 25 19 3 342 247 238 305 53 90 137 138 138 145 149 156 183 188 172 169 192 211 207 185 191 213 227 230 234 234 239 250 246 242 253 262 267 274
206 220 229 170 203 234 13 315 316 314 301 264 248 244 237 230 213 201 190 189 186 187 198 207 193 183 202 215 188 184 203 226 234 235 236 234 234 244 251 246 247 258 259 268
278 272 274 243 243 250 248 252 273 279 274 258 255 250 242 228 226 223 216 206 200 198 209 219 211 203 208 204 187 191 217 234 234 235 244 244 242 238 241 244 248 255 259 266
267 278 293 274 259 263 266 264 269 269 260 251 254 254 245 245 240 233 230 223 210 212 220 225 216 215 212 201 189 204 222 234 239 238 240 246 247 241 244 242 241 252 256 256
251 258 261 275 292 286 271 265 265 268 270 259 241 243 245 245 241 233 224 218 221 226 229 230 220 221 220 207 198 206 226 235 236 239 245 246 258 278 266 260 270 270 270 270
258 272 270 275 287 297 288 282 275 264 260 263 254 240 239 242 239 230 226 224 225 227 228 228 226 230 227 213 203 208 220 230 234 236 242 248 251 262 284 290 280 279 278 279
276 283 279 275 276 278 276 280 278 272 264 256 255 251 240 244 243 240 238 233 225 226 232 230 232 236 228 209 204 215 222 231 233 234 240 244 248 253 261 277 291 291 284 281
267 264 265 280 286 285 282 278 277 272 265 262 250 245 243 242 243 244 243 233 228 236 240 236 237 240 225 208 209 221 227 234 234 237 241 245 251 257 261 265 271 280 286 286
275 272 267 268 271 273 272 265 260 261 258 260 255 247 246 244 247 248 245 228 228 238 240 238 241 240 222 217 219 229 235 242 243 241 246 250 252 256 260 264 269 272 276 280
270 272 274 276 275 275 268 262 261 262 256 255 256 257 259 258 258 254 250 241 235 241 241 238 246 247 230 222 220 226 232 244 248 248 245 249 253 255 258 263 268 273 273 276
263 264 266 270 275 282 285 281 274 272 267 268 268 258 250 246 249 255 260 261 275 279 266 247 244 243 236 229 225 225 230 238 239 241 247 251 257 257 261 264 268 273 278 280
297 296 300 301 291 279 281 288 292 286 285 270 250 251 256 258 260 263 268 266 267 274 276 255 246 244 243 242 238 231 233 243 250 250 249 262 268 264 265 267 270 271 275 278
329 334 335 331 333 315 301 308 314 316 316 311 285 283 285 282 276 271 269 264 259 255 265 273 270 261 253 248 244 233 236 245 251 255 256 256 262 266 267 267 269 270 271 272
328 333 336 333 329 324 304 294 302 303 305 291 253 257 266 277 275 266 267 278 280 268 267 271 266 260 255 255 254 242 243 250 255 257 259 262 266 269 270 270 271 272 272 272
306 313 314 310 307 311 310 300 276 279 289 286 278 271 275 281 281 275 258 254 267 276 277 270 266 267 270 272 257 255 257 258 261 262 260 262 266 270 273 274 275 275 273 271
300 299 302 303 296 294 302 299 281 269 269 269 269 270 268 268 264 267 281 276 269 281 282 271 279 284 286 280 260 261 262 263 265 263 263 264 266 269 272 273 273 274 275 275
304 305 299 298 299 297 293 290 284 273 267 267 263 260 261 273 277 260 256 279 287 289 280 281 290 291 290 274 263 263 263 264 265 265 265 268 268 269 270 272 273 273 274 275
292 291 290 293 292 282 278 282 285 281 277 276 275 269 256 245 256 273 278 279 286 292 285 287 292 293 288 270 266 266 267 266 270 273 269 271 272 272 272 273 274 275 276 274
280 281 280 273 269 273 279 281 280 281 282 285 285 279 272 264 261 267 271 271 272 282 281 276 278 283 273 269 269 270 271 279 283 277 272 274 273 273 275 276 275 275 275 273
284 281 284 287 283 274 271 270 272 277 277 276 283 284 281 278 275 274 275 276 277 276 275 273 270 269 271 272 273 272 272 272 272 272 274 275 274 273 275 275 276 276 277 275